FENGYUN 1C DEB

Satellite information

Favourite Embed

Satellite Type and Status

DEBRISIN ORBIT

Key statistics

Satellite FENGYUN 1C DEB at a glance.

Uptime

9618

Days in orbit

Revolutions

≈ 14.0

Per day

Orbit

SSO

Sun Synchronous Orbit

Inclination

98.9

Latest

Satellite identification and parameters

Extended collection of information and parameters for FENGYUN 1C DEB.

Object identification

Identified? True

Debris? True

Object name: FENGYUN 1C DEB

International designator: 1999-025ATK

Object number (NORAD): 30749

Object ID (CCSDS): 30749

Country: PEOPLES REPUBLIC OF CHINA (PRC)

Current information (Y/N): Y

RCS size: SMALL

Orbital parameters

Period: 102.872 minutes

Inclination: 98.9011 deg

SMA: 7272.643 km

Apoapsis: 935.476 km

Periapsis: 853.541 km

RAAN: 280.3328 deg

Eccentricy: 0.00563306

Argument of periapsis: 135.6766 deg

Mean anomaly: 224.893 deg

Mean motion: 13.99794646 rev/day

Mean motion (dot): 0.00000113 rev/day2

B* drag term: 0.00010451437 1/REarth

Two-line elements (TLE)

Creation date: Sept. 8, 2025, 3:16 a.m.

Reference frame: TEME

Reference center: EARTH

Epoch: Sept. 7, 2025, 7:35 p.m. UTC

TLE line 0: 0 FENGYUN 1C DEB

TLE line 1: 1 30749U 99025ATK 25250.81623809 .00000113 00000-0 10451-3 0 9998

TLE line 2: 2 30749 98.9011 280.3328 0056331 135.6766 224.8930 13.99794646946242

Live tracking on map

Real-time ground track for satellite FENGYUN 1C DEB.

In-orbit conjunctions

A list of the most updated potential collisions computed for object FENGYUN 1C DEB.

Target Orbit TCA Probability of collision Miss distance Type
CZ-6A DEB LEO 2025-02-27 14:57:30 0.0001239114 597.0 (m) DEBRIS
METEOR 2-11 DEB LEO 2024-11-16 06:08:56 0.0002882137 537.0 (m) DEBRIS
DELTA 1 DEB SSO 2024-11-11 10:54:48 0.0001271309 421.0 (m) DEBRIS

Associated space launch

Chinese polar orbiting meteorological satellite

FENGYUN 1C DEB was lifted into orbit during the mission ‘Long March 4B | Feng Yun 1C’, on board a Long March 4B space rocket.

The launch took place on May 10, 1999, 1:33 a.m. from Launch Complex 7.

For more information about the launch, click the button.

Launch to space Long March 4B | Feng Yun 1C
Long March 4B | Feng Yun 1C

Agency: N/A

Status: Launch Successful

Launch date: May 10, 1999, 1:33 a.m. UTC

Rocket: Long March 4B

Launch pad: Launch Complex 7

Location: Taiyuan Satellite Launch Center, People's Republic of China

...

Latest news about this satellite

There are no fresh news available about this satellite. Check back as we update our databases every day.


Newsletter sign-up

Weekly statistics, charts and insights to help you stay on top of the space industry.